Location: Baix
(44.7118°N, 4.7648°E)
Time: 08:26:59
(UTC+00:00)

A-11 Canister half - Pass Details

Date: 26 November 2020
Orbit: 1517 x 1683 km, 47.2° (Epoch: 22 January)

Event Time Altitude Azimuth Distance (km) Brightness Sun altitude
Rises 19:54:54 0° 291° (WNW) 4,941 12.5 -40.5°
Reaches altitude 10° 19:59:06 10° 277° (W) 3,946 11.8 -41.2°
Maximum altitude 20:05:57 21° 234° (SW) 3,130 10.8 -42.4°
Enters shadow 20:11:44 12° 195° (SSW) 3,692 10.9 -43.4°
